Portsmouth, NH

2:08 AM EDT on May 28, 2017 (GMT -0400)
Pease International Tradeport

Weather History for KPSM - December, 2012

Change the Weather History Date:

Friday, December 14, 2012

  Actual Average Record
Temperature  
Mean Temperature 35 °F -  
Max Temperature 46 °F 38 °F 57 °F (2006)
Min Temperature 24 °F 23 °F -5 °F (1976)
Degree Days  
Heating Degree Days 30    
Moisture  
Dew Point 23 °F    
Average Humidity 66    
Maximum Humidity 89    
Minimum Humidity 34    
Precipitation  
Precipitation 0.00 in - - ()
Sea Level Pressure  
Sea Level Pressure 30.14 in    
Wind  
Wind Speed 5 mph (WSW)    
Max Wind Speed 13 mph    
Max Gust Speed 18 mph    
Visibility 10 miles    
Events      
Averages and records for this station are not official NWS values.
T = Trace of Precipitation, MM = Missing Value Source: NWS Daily Summary

Daily Weather History Graph

Daily Weather History Graph

Search for Another Location

Airport or City:

Trip Planner

Search our weather history database for the weather conditions in past years. The results will help you decide how hot, cold, wet, or windy it might be!

Date:

Astronomy

Dec. 14, 2012 Rise Set
Actual Time 7:07 AM EST 4:08 PM EST
Civil Twilight 6:35 AM EST 4:41 PM EST
Nautical Twilight 5:59 AM EST 5:17 PM EST
Astronomical Twilight 5:24 AM EST 5:51 PM EST
Moon 8:08 AM EST (12/14) 5:59 PM EST (12/14)
Length of Visible Light 10h 06m
Length of Day
9h 01m
Waxing Crescent, 3% of the Moon is Illuminated
Dec 14
Waxing Crescent
Dec 20
First Quarter
Dec 28
Full
Jan 4
Last Quarter
Jan 11
New

Hourly Weather History & Observations

Time (EST) Temp. Windchill Dew Point Humidity Pressure Visibility Wind Dir Wind Speed Gust Speed Precip Events Conditions
12:55 AM 25.0 °F - 22.3 °F 89% 30.25 in 10.0 mi Calm Calm - N/A   Scattered Clouds
1:55 AM 26.4 °F 22.4 °F 23.2 °F 88% 30.25 in 10.0 mi West 3.5 mph - N/A   Mostly Cloudy
2:55 AM 26.6 °F - 22.3 °F 84% 30.24 in 10.0 mi WSW 2.3 mph - N/A   Mostly Cloudy
3:55 AM 26.1 °F 21.9 °F 22.5 °F 86% 30.22 in 10.0 mi WSW 3.5 mph - N/A   Mostly Cloudy
4:55 AM 25.5 °F - 21.6 °F 85% 30.21 in 10.0 mi WSW 2.3 mph - N/A   Mostly Cloudy
5:55 AM 24.3 °F 16.3 °F 20.3 °F 85% 30.19 in 10.0 mi SW 6.9 mph - N/A   Mostly Cloudy
6:55 AM 24.6 °F 17.7 °F 20.7 °F 85% 30.19 in 10.0 mi West 5.8 mph - N/A   Scattered Clouds
7:55 AM 26.6 °F 21.2 °F 22.3 °F 84% 30.17 in 10.0 mi WSW 4.6 mph - N/A   Scattered Clouds
8:55 AM 28.2 °F 22.0 °F 23.0 °F 81% 30.17 in 10.0 mi West 5.8 mph - N/A   Scattered Clouds
9:55 AM 34.5 °F 28.6 °F 26.1 °F 71% 30.15 in 10.0 mi SW 6.9 mph - N/A   Scattered Clouds
10:55 AM 40.5 °F 35.8 °F 25.5 °F 55% 30.11 in 10.0 mi SW 6.9 mph - N/A   Partly Cloudy
11:55 AM 43.0 °F 38.2 °F 24.4 °F 48% 30.06 in 10.0 mi SW 8.1 mph - N/A   Partly Cloudy
12:55 PM 45.7 °F 41.0 °F 22.8 °F 41% 30.04 in 10.0 mi SW 9.2 mph - N/A   Partly Cloudy
1:55 PM 46.4 °F 40.7 °F 20.3 °F 36% 30.03 in 10.0 mi West 12.7 mph 18.4 mph N/A   Partly Cloudy
2:55 PM 46.6 °F - 19.2 °F 34% 30.04 in 10.0 mi West 9.2 mph - N/A   Partly Cloudy
3:55 PM 44.2 °F 38.8 °F 19.8 °F 38% 30.07 in 10.0 mi West 10.4 mph - N/A   Partly Cloudy
4:55 PM 40.8 °F 36.2 °F 22.5 °F 48% 30.08 in 10.0 mi West 6.9 mph - N/A   Partly Cloudy
5:55 PM 38.5 °F 32.7 °F 24.3 °F 57% 30.09 in 10.0 mi West 8.1 mph - N/A   Partly Cloudy
6:55 PM 37.6 °F 31.6 °F 23.7 °F 57% 30.11 in 10.0 mi West 8.1 mph - N/A   Partly Cloudy
7:55 PM 36.7 °F 30.5 °F 25.0 °F 63% 30.12 in 10.0 mi West 8.1 mph - N/A   Partly Cloudy
8:55 PM 36.9 °F 30.1 °F 24.8 °F 62% 30.13 in 10.0 mi West 9.2 mph - N/A   Scattered Clouds
9:55 PM 36.0 °F 29.0 °F 25.2 °F 65% 30.13 in 10.0 mi West 9.2 mph - N/A   Scattered Clouds
10:55 PM 35.4 °F 27.8 °F 25.5 °F 67% 30.14 in 10.0 mi West 10.4 mph - N/A   Mostly Cloudy
11:55 PM 37.4 °F 32.1 °F 25.7 °F 63% 30.15 in 10.0 mi West 6.9 mph - N/A   Mostly Cloudy